[[{"header":{"parameterUnit":"m.s-1","parameterCategory":1,"la1":30.2992,"la2":30.254,"lo1":-89.0895,"lo2":-89.0443,"dy":0.0025,"dx":0.0025,"nx":19,"ny":19,"refTime":"2026-03-09T21:00:00:Z","depth":0,"parameterNumber":2,"parameterNumberName":"U-component_of_WINDS"},"data":[0,0,0,-1.9714,-1.9715,-1.9751,-1.9751,-1.9801,-1.9802,0,0,0,0,0,0,0,0,0,0,0,-1.9704,-1.9705,-1.9714,-1.9715,-1.9751,-1.9751,-1.9801,-1.9802,0,0,0,0,0,0,0,0,0,0,0,-1.9704,-1.9705,-1.9705,-1.9715,-1.9751,-1.9751,-1.9801,-1.9773,0,0,0,0,0,0,0,0,0,0,-1.9737,-1.9729,-1.9705,-1.9705,-1.9715,-1.9751,-1.9751,-1.9771,-1.9775,-1.9787,0,-1.9796,0,-1.98,-1.9805,-1.9806,0,0,0,-1.9714,-1.9727,-1.9735,-1.9705,-1.9715,-1.9751,-1.9734,-1.9773,-1.9777,-1.9791,-1.9797,-1.9799,-1.9801,-1.9806,-1.9806,-1.9872,-1.9872,0,0,-1.9712,-1.9712,-1.9733,-1.9737,-1.973,-1.9733,-1.9735,-1.9775,-1.9783,-1.9797,-1.98,-1.9801,-1.9806,-1.9806,-1.9872,-1.9872,0,0,0,-1.9707,-1.9711,-1.9718,-1.9735,-1.9741,-1.9734,-1.9737,-1.9781,-1.9783,-1.98,-1.9802,-1.9806,-1.9807,-1.9871,-1.9872,-1.9886,0,0,0,-1.9706,-1.9708,-1.9717,-1.9717,-1.9741,-1.9761,-1.9741,-1.978,-1.9785,-1.9802,-1.9806,-1.9808,-1.9871,-1.9872,-1.9885,-1.9893,0,0,0,-1.9702,-1.9707,-1.9713,-1.9717,-1.9733,-1.9761,-1.9765,-1.9781,-1.9786,-1.9806,-1.9808,-1.9871,-1.9872,-1.9884,-1.9892,-1.9909,0,0,0,-1.9698,-1.9727,-1.9713,-1.9746,-1.9732,-1.9769,-1.9765,-1.9793,-1.9812,-1.9807,-1.9871,-1.9872,-1.9884,-1.9891,-1.9908,-1.9923,-1.993,0,0,-1.9734,-1.9731,-1.975,-1.9739,-1.9777,-1.9764,-1.9805,-1.9824,-1.9827,-1.9857,-1.9859,-1.9886,-1.9891,-1.9909,-1.9969,-1.9974,0,0,0,-1.9762,-1.9775,-1.9786,-1.9802,-1.9816,-1.9828,-1.984,-1.9847,-1.9872,-1.9842,-1.9898,-1.9901,-1.9912,-1.9919,-1.9923,-1.9932,-1.9876,-1.9875,-1.9875,-1.9812,-1.9813,-1.9845,-1.9849,-1.9866,-1.9877,-1.9891,-1.9902,-1.99,-1.9913,-1.9922,-1.9957,-1.9966,-1.9969,-1.9978,-1.9931,-1.9931,-1.9931,-1.9931,-1.9864,-1.9883,-1.9877,-1.9906,-1.9907,-1.9932,-1.9944,-1.9941,-1.9964,-1.9951,-1.996,-1.9945,-1.9974,-1.9982,-1.9932,-1.9932,-1.9932,-1.9932,-1.9932,-1.9897,-1.9906,-1.9912,-1.9935,-1.9954,-1.9959,-1.9981,-1.9982,-1.9983,-1.9993,-2.0001,-2.0001,-2.0,-1.9997,-1.9997,-1.9997,-1.9997,-1.9997,-1.9997,-1.9927,-1.9934,-1.9951,-1.9967,-1.9977,-1.9991,-2.0002,-2.0013,-2.0025,-2.0024,-2.0025,-2.002,-1.9977,-1.9966,-1.9999,-1.9999,-1.9999,-1.9998,-1.9998,-1.9978,-1.9966,-1.9993,-2.0003,-2.0021,-2.0038,-2.0039,-2.0061,-2.007,-2.0081,-2.0075,-2.0043,-2.0041,-2.0037,-2.0027,-2.0075,-2.0075,-2.0075,-2.0075,-2.0004,-2.0002,-2.0029,-2.0045,-2.0061,-2.0064,-2.0094,-2.0104,-2.0112,-2.0118,-2.0111,-2.0099,-2.0095,-2.0095,-2.009,-2.0081,-2.0141,-2.0141,-2.0141,-2.0035,-2.0034,-2.0059,-2.0065,-2.0079,-2.0091,-2.012,-2.014,-2.0147,-2.0144,-2.0122,-2.0119,-2.0099,-2.0093,-2.0089,-2.0082,-2.0065,0,0]},{"header":{"parameterUnit":"m.s-1","parameterCategory":1,"la1":30.2992,"la2":30.254,"lo1":-89.0895,"lo2":-89.0443,"dy":0.0025,"dx":0.0025,"nx":19,"ny":19,"refTime":"2026-03-09T21:00:00:Z","depth":0,"parameterNumber":3,"parameterNumberName":"V-component_of_WINDS"},"data":[0,0,0,2.5138,2.5139,2.5186,2.5186,2.5243,2.5244,0,0,0,0,0,0,0,0,0,0,0,2.5122,2.5122,2.5138,2.5139,2.5186,2.5186,2.5243,2.5244,0,0,0,0,0,0,0,0,0,0,0,2.5122,2.5122,2.5122,2.5139,2.5186,2.5186,2.5243,2.5209,0,0,0,0,0,0,0,0,0,0,2.5164,2.5146,2.5122,2.5122,2.514,2.5186,2.5186,2.5207,2.5211,2.5221,0,2.5228,0,2.5237,2.5247,2.5247,0,0,0,2.5141,2.5143,2.5158,2.5122,2.514,2.5186,2.5166,2.5209,2.5214,2.5226,2.5229,2.5231,2.5238,2.5248,2.5248,2.5296,2.5296,0,0,2.5139,2.5129,2.5155,2.5161,2.5152,2.5164,2.5167,2.5212,2.5215,2.5229,2.5232,2.5239,2.5248,2.5248,2.5296,2.5296,0,0,0,2.513,2.5127,2.5141,2.5158,2.5167,2.5165,2.5169,2.5213,2.5218,2.5233,2.5239,2.5248,2.5249,2.5295,2.5296,2.5293,0,0,0,2.5128,2.5122,2.514,2.5134,2.5166,2.519,2.5168,2.5215,2.5221,2.5239,2.5248,2.5249,2.5295,2.5296,2.5293,2.5293,0,0,0,2.512,2.5121,2.5127,2.5134,2.5153,2.519,2.5198,2.5217,2.5224,2.5248,2.525,2.5295,2.5296,2.5292,2.5293,2.5303,0,0,0,2.5107,2.5123,2.5127,2.5147,2.5153,2.5187,2.5198,2.5224,2.5243,2.5249,2.5295,2.5296,2.5292,2.5293,2.5303,2.5311,2.5313,0,0,2.5121,2.5124,2.5137,2.5142,2.5173,2.5181,2.5213,2.524,2.5251,2.528,2.5282,2.5293,2.5293,2.5303,2.5328,2.5329,0,0,0,2.5138,2.5147,2.5158,2.5176,2.5197,2.5216,2.5239,2.525,2.5275,2.5264,2.5299,2.53,2.5306,2.5311,2.5312,2.5319,2.5297,2.5297,2.5297,2.5143,2.5158,2.518,2.52,2.5218,2.5242,2.5258,2.5277,2.5285,2.5294,2.5302,2.5315,2.532,2.5321,2.5328,2.5307,2.5307,2.5307,2.5307,2.5166,2.5181,2.5193,2.5219,2.5234,2.5257,2.5282,2.5287,2.5311,2.531,2.5316,2.5314,2.5322,2.5329,2.5307,2.5307,2.5307,2.5307,2.5307,2.5171,2.5181,2.5194,2.5223,2.5244,2.5264,2.5286,2.5299,2.5312,2.5318,2.533,2.533,2.5332,2.5323,2.5323,2.5323,2.5323,2.5323,2.5323,2.5171,2.5186,2.5203,2.5228,2.5243,2.5263,2.5289,2.5304,2.5324,2.5332,2.5332,2.534,2.532,2.5315,2.5324,2.5323,2.5323,2.5323,2.5323,2.5189,2.5188,2.5214,2.5228,2.526,2.5281,2.5297,2.5327,2.5341,2.5352,2.5359,2.5342,2.5346,2.5345,2.5341,2.5356,2.5356,2.5356,2.5356,2.5194,2.5197,2.5228,2.525,2.5274,2.5292,2.5323,2.5345,2.5366,2.5376,2.5376,2.5372,2.5371,2.5375,2.5374,2.537,2.5392,2.5392,2.5392,2.5206,2.5213,2.5236,2.5257,2.5283,2.5306,2.5335,2.5362,2.5386,2.5394,2.5385,2.5383,2.5377,2.5374,2.538,2.5377,2.5371,0,0]}]]